Sigfox identifier Datetime Temperature Humidity SNR
002EF1D2 2019-04-23 14:48:53 21.2 29 20
002EF1D2 2019-04-23 14:15:56 21.2 29 19.9
002EF1D2 2019-04-23 13:43:03 21.2 29 19.9
002EF1D2 2019-04-23 13:10:10 21.2 29 19.6
002EF1D2 2019-04-23 12:37:11 21.2 29 19.6
002EF1D2 2019-04-23 12:04:14 21.2 28 19.8
002EF1D2 2019-04-23 11:31:19 21.2 28 19.8
002EF1D2 2019-04-23 10:58:24 21 28 19.7
002EF1D2 2019-04-23 10:25:31 21 28 19.8
002EF1D2 2019-04-23 09:52:33 20.9 28 19.5
002EF1D2 2019-04-23 09:19:37 20.7 28 19.2
002EF1D2 2019-04-23 08:46:44 20.7 28 19.2
002EF1D2 2019-04-23 08:13:46 20.7 28 19.3
002EF1D2 2019-04-23 07:40:50 20.7 28 19.2
002EF1D2 2019-04-23 07:07:53 20.7 28 19
002EF1D2 2019-04-23 06:34:58 20.7 28 16.4
002EF1D2 2019-04-23 06:02:01 20.7 28 16.5
002EF1D2 2019-04-23 05:29:05 20.7 28 16.5
002EF1D2 2019-04-23 04:56:09 20.7 28 16.4
002EF1D2 2019-04-23 04:23:14 20.7 28 16.4
002EF1D2 2019-04-23 03:50:18 20.7 28 16.5
002EF1D2 2019-04-23 03:17:23 20.7 28 16.4
002EF1D2 2019-04-23 02:44:28 20.7 28 16.4
002EF1D2 2019-04-23 02:11:32 20.7 28 16.8
002EF1D2 2019-04-23 01:38:37 20.7 28 16.9
002EF1D2 2019-04-23 01:05:37 20.7 28 16.9
002EF1D2 2019-04-23 00:32:43 20.7 28 17.1
002EF1D2 2019-04-22 23:59:46 20.7 28 17
002EF1D2 2019-04-22 23:26:51 20.7 28 17.4
002EF1D2 2019-04-22 22:53:54 20.7 28 17.1
002EF1D2 2019-04-22 22:20:58 20.7 28 17.2
002EF1D2 2019-04-22 21:48:03 20.7 28 17.6
002EF1D2 2019-04-22 21:15:06 20.7 28 17.6
002EF1D2 2019-04-22 20:42:10 20.7 28 17.7
002EF1D2 2019-04-22 20:09:15 20.7 28 17.6
002EF1D2 2019-04-22 19:36:18 20.7 28 17.4
002EF1D2 2019-04-22 19:03:22 20.7 28 17.2
002EF1D2 2019-04-22 18:30:26 20.7 28 17.2
002EF1D2 2019-04-22 17:57:30 20.7 28 17.3
002EF1D2 2019-04-22 17:24:36 20.7 28 17.2
002EF1D2 2019-04-22 16:51:38 20.7 28 17
002EF1D2 2019-04-22 16:18:43 20.7 27 16.9
002EF1D2 2019-04-22 15:45:48 20.7 27 17.2
002EF1D2 2019-04-22 15:12:52 20.7 27 17.2
002EF1D2 2019-04-22 14:39:57 20.7 27 17.2
002EF1D2 2019-04-22 14:07:01 20.7 27 17.2
002EF1D2 2019-04-22 13:34:06 20.7 27 17.2
002EF1D2 2019-04-22 13:01:10 20.8 27 17
002EF1D2 2019-04-22 12:28:16 20.7 27 16.6
002EF1D2 2019-04-22 11:55:22 20.7 27 17.1
002EF1D2 2019-04-22 11:22:25 20.7 27 17
002EF1D2 2019-04-22 10:49:29 20.7 27 16.9
002EF1D2 2019-04-22 10:16:34 20.7 27 16.8
002EF1D2 2019-04-22 09:43:38 20.7 26 16.7
002EF1D2 2019-04-22 09:10:43 20.7 26 16.6
002EF1D2 2019-04-22 08:37:48 20.7 26 16.3
002EF1D2 2019-04-22 08:04:54 20.7 26 15.7
002EF1D2 2019-04-22 07:31:58 20.7 26 15.6
002EF1D2 2019-04-22 06:59:01 20.7 26 15.7
002EF1D2 2019-04-22 06:26:04 20.7 26 15.8
002EF1D2 2019-04-22 05:53:06 20.8 26 15.8
002EF1D2 2019-04-22 05:20:10 20.8 26 15.9
002EF1D2 2019-04-22 04:47:13 20.8 26 16.2
002EF1D2 2019-04-22 04:14:15 20.8 26 16.1
002EF1D2 2019-04-22 03:41:18 20.9 26 16
002EF1D2 2019-04-22 03:08:20 21 26 16
002EF1D2 2019-04-22 02:35:23 21 26 16
002EF1D2 2019-04-22 02:02:26 21 26 16.3
002EF1D2 2019-04-22 01:29:28 21 26 16.3
002EF1D2 2019-04-22 00:56:30 21 26 16.4
002EF1D2 2019-04-22 00:23:33 21 26 16.8
002EF1D2 2019-04-21 23:50:35 21 26 17.1
002EF1D2 2019-04-21 23:17:38 21 26 17
002EF1D2 2019-04-21 22:44:40 21 26 17.4
002EF1D2 2019-04-21 22:11:43 21 26 17.2
002EF1D2 2019-04-21 21:38:48 21 26 17.2
002EF1D2 2019-04-21 21:05:52 21 26 17.3
002EF1D2 2019-04-21 20:32:57 21 26 17.6
002EF1D2 2019-04-21 19:59:59 21 26 17.5
002EF1D2 2019-04-21 19:27:03 21 26 17.8
002EF1D2 2019-04-21 18:54:06 21 26 17.9
002EF1D2 2019-04-21 18:21:09 21 26 17.9
002EF1D2 2019-04-21 17:48:13 21 26 18.1
002EF1D2 2019-04-21 17:15:17 21 26 17.9
002EF1D2 2019-04-21 16:42:20 21 26 18.4
002EF1D2 2019-04-21 16:09:24 20.9 26 18.6
002EF1D2 2019-04-21 15:36:28 20.7 26 18.6
002EF1D2 2019-04-21 15:03:31 20.7 26 18.5
002EF1D2 2019-04-21 14:30:36 20.7 26 18.8
002EF1D2 2019-04-21 13:57:37 20.7 26 18.8
002EF1D2 2019-04-21 13:24:42 20.7 26 18.9
002EF1D2 2019-04-21 12:18:46 20.7 26 19
002EF1D2 2019-04-21 11:45:50 20.7 26 18.6
002EF1D2 2019-04-21 11:12:51 20.7 26 18.5
002EF1D2 2019-04-21 10:39:54 20.7 26 18.5
002EF1D2 2019-04-21 10:06:57 20.7 26 18.2
002EF1D2 2019-04-21 09:34:00 20.7 26 17.9
002EF1D2 2019-04-21 09:01:07 20.7 26 17.9
002EF1D2 2019-04-21 08:28:08 20.7 26 17.6
002EF1D2 2019-04-21 07:55:11 20.7 26 17.5
002EF1D2 2019-04-21 07:22:15 20.7 26 17.5
002EF1D2 2019-04-21 06:49:20 20.7 26 17.5
002EF1D2 2019-04-21 06:16:25 20.7 26 17.2
002EF1D2 2019-04-21 05:43:33 20.7 26 17.2
002EF1D2 2019-04-21 05:10:35 20.7 26 16.8
002EF1D2 2019-04-21 04:37:41 20.7 26 17.2
002EF1D2 2019-04-21 04:04:44 20.7 26 17.3
002EF1D2 2019-04-21 03:31:48 20.7 26 17.1
002EF1D2 2019-04-21 02:58:52 20.7 26 17.1
002EF1D2 2019-04-21 02:25:55 20.8 26 16.5
002EF1D2 2019-04-21 01:53:00 20.7 26 16
002EF1D2 2019-04-21 01:20:06 20.7 25 16.2
002EF1D2 2019-04-21 00:47:10 20.7 25 15.9
002EF1D2 2019-04-21 00:14:15 20.8 25 15.6
002EF1D2 2019-04-20 23:41:20 20.9 25 15.6
002EF1D2 2019-04-20 23:08:25 20.8 25 15.4
002EF1D2 2019-04-20 22:35:28 20.7 25 15.6
002EF1D2 2019-04-20 22:02:33 20.8 25 15.6
002EF1D2 2019-04-20 21:29:37 20.8 25 15.6
002EF1D2 2019-04-20 20:56:42 20.9 25 15.6
002EF1D2 2019-04-20 20:23:46 20.8 25 15.9
002EF1D2 2019-04-20 19:50:51 20.8 25 15.8
002EF1D2 2019-04-20 19:17:55 20.9 25 15.8
002EF1D2 2019-04-20 18:44:59 20.9 25 15.9
002EF1D2 2019-04-20 18:12:03 20.8 25 15.6
002EF1D2 2019-04-20 17:39:06 20.7 25 15.7
002EF1D2 2019-04-20 17:06:09 20.9 24 15.6
002EF1D2 2019-04-20 16:33:12 20.9 24 15.7
002EF1D2 2019-04-20 16:00:17 20.9 24 15.7
002EF1D2 2019-04-20 15:27:18 20.8 24 16
002EF1D2 2019-04-20 14:54:20 20.8 24 15.6
002EF1D2 2019-04-20 14:21:23 20.7 24 15.5
002EF1D2 2019-04-20 13:48:28 20.8 24 15.5
002EF1D2 2019-04-20 13:15:29 20.7 24 15.8
002EF1D2 2019-04-20 12:42:33 20.7 24 15.9
002EF1D2 2019-04-20 12:09:37 20.7 24 15.9
002EF1D2 2019-04-20 11:36:40 20.7 24 15.7
002EF1D2 2019-04-20 11:03:44 20.7 24 15.7
002EF1D2 2019-04-20 10:30:47 20.7 24 18.8
002EF1D2 2019-04-20 09:57:49 20.7 24 18.7
002EF1D2 2019-04-20 09:24:52 20.7 24 18.9
002EF1D2 2019-04-20 08:51:55 20.7 24 18.7
002EF1D2 2019-04-20 08:18:58 20.7 24 19
002EF1D2 2019-04-20 07:46:03 20.7 24 19
002EF1D2 2019-04-20 07:13:04 20.7 24 19.1
002EF1D2 2019-04-20 06:40:06 20.7 24 18.9
002EF1D2 2019-04-20 06:07:08 20.7 24 18.9
002EF1D2 2019-04-20 05:34:10 20.7 23 19
002EF1D2 2019-04-20 05:01:13 20.7 23 18.9
002EF1D2 2019-04-20 04:28:15 20.7 23 18.9
002EF1D2 2019-04-20 03:55:19 20.6 23 18.9
002EF1D2 2019-04-20 03:22:24 20.6 23 18.8
002EF1D2 2019-04-20 02:49:27 20.6 23 19
002EF1D2 2019-04-20 02:16:31 20.6 23 18.9
002EF1D2 2019-04-20 01:43:38 20.6 23 18.7
002EF1D2 2019-04-20 01:10:41 20.6 23 18.6
002EF1D2 2019-04-20 00:04:50 20.5 23 18.6
002EF1D2 2019-04-19 23:31:55 20.5 23 18.9
002EF1D2 2019-04-19 22:59:01 20.5 23 18.8
002EF1D2 2019-04-19 22:26:06 20.5 23 18.8
002EF1D2 2019-04-19 21:53:12 20.5 23 19.1
002EF1D2 2019-04-19 21:20:16 20.6 24 19.1
002EF1D2 2019-04-19 20:47:21 20.5 24 19.1
002EF1D2 2019-04-19 20:14:25 20.5 24 16.2
002EF1D2 2019-04-19 19:41:28 20.5 24 16.2
002EF1D2 2019-04-19 19:08:32 20.5 24 16
002EF1D2 2019-04-19 18:35:36 20.5 24 16.1
002EF1D2 2019-04-19 18:02:40 20.5 24 15.9
002EF1D2 2019-04-19 17:29:44 20.5 24 15.9
002EF1D2 2019-04-19 16:56:49 20.5 24 16.5
002EF1D2 2019-04-19 16:23:51 20.5 24 16.5
002EF1D2 2019-04-19 15:50:55 20.5 24 16.5
002EF1D2 2019-04-19 15:17:59 20.5 24 16.8
002EF1D2 2019-04-19 14:45:02 20.5 24 17
002EF1D2 2019-04-19 14:12:07 20.5 24 17
002EF1D2 2019-04-19 13:39:10 20.5 24 17
002EF1D2 2019-04-19 13:06:14 20.5 24 17.2
002EF1D2 2019-04-19 12:33:18 20.5 25 17
002EF1D2 2019-04-19 12:00:23 20.5 25 17
002EF1D2 2019-04-19 11:27:28 20.7 25 17.1
002EF1D2 2019-04-19 10:54:31 20.7 25 17.3
002EF1D2 2019-04-19 10:21:35 20.7 25 17.8
002EF1D2 2019-04-19 09:48:40 20.7 25 17.4
002EF1D2 2019-04-19 09:15:43 20.7 25 17.4
002EF1D2 2019-04-19 08:42:50 20.7 25 17.4
002EF1D2 2019-04-19 08:09:52 20.8 25 17.1
002EF1D2 2019-04-19 07:36:56 20.7 25 17.1
002EF1D2 2019-04-19 07:03:59 20.7 25 17.2
002EF1D2 2019-04-19 06:31:03 20.8 25 17.2
002EF1D2 2019-04-19 05:58:07 20.8 26 17.2
002EF1D2 2019-04-19 05:25:10 20.8 26 17.1
002EF1D2 2019-04-19 04:52:13 20.9 26 17.5
002EF1D2 2019-04-19 04:19:17 20.9 26 17.4
002EF1D2 2019-04-19 03:46:20 21 26 17.7
002EF1D2 2019-04-19 03:13:25 20.9 26 19.6
002EF1D2 2019-04-19 02:40:28 21 26 19.9
002EF1D2 2019-04-19 02:07:35 21 26 19.8
002EF1D2 2019-04-19 01:34:38 21 26 21.2
002EF1D2 2019-04-19 01:01:42 21 26 22.3
002EF1D2 2019-04-19 00:28:46 21 26 22.6
002EF1D2 2019-04-18 23:55:50 21 26 22.8
002EF1D2 2019-04-18 23:22:54 21 26 22.9
002EF1D2 2019-04-18 22:50:02 21 26 23.3
002EF1D2 2019-04-18 22:17:01 21 26 23.5
002EF1D2 2019-04-18 21:44:06 20.9 26 23.7
002EF1D2 2019-04-18 21:11:11 21 26 23.8
002EF1D2 2019-04-18 20:38:15 21 26 24
002EF1D2 2019-04-18 20:05:19 21 26 24.4
002EF1D2 2019-04-18 19:32:22 21 26 24.5
002EF1D2 2019-04-18 18:59:26 21.1 26 24.7
002EF1D2 2019-04-18 18:26:31 21.2 26 25.2
002EF1D2 2019-04-18 17:53:34 21.2 26 25.3
002EF1D2 2019-04-18 17:20:39 21.2 26 25.4
002EF1D2 2019-04-18 16:47:44 21.2 26 25.7
002EF1D2 2019-04-18 16:14:51 21.2 26 25.9
002EF1D2 2019-04-18 15:41:55 21.4 26 26
002EF1D2 2019-04-18 15:08:57 21.4 26 26.1
002EF1D2 2019-04-18 14:36:01 21.4 26 26.2
002EF1D2 2019-04-18 14:03:07 21.4 26 26
002EF1D2 2019-04-18 13:30:11 21.6 26 26.1
002EF1D2 2019-04-18 12:57:16 21.7 26 25.8
002EF1D2 2019-04-18 12:24:21 22 25 25.6
002EF1D2 2019-04-18 11:51:27 22 21 25.5
002EF1D2 2019-04-18 11:18:31 22 21 25.6
002EF1D2 2019-04-18 10:45:34 22 22 25.6
002EF1D2 2019-04-18 10:12:38 21.8 22 25.8
002EF1D2 2019-04-18 09:39:42 21.8 22 25.8
002EF1D2 2019-04-18 09:06:46 21.8 22 25.8
002EF1D2 2019-04-18 08:33:49 21.8 21 25.8
002EF1D2 2019-04-18 08:00:53 21.8 21 25.9
002EF1D2 2019-04-18 07:27:57 21.8 22 25.9
002EF1D2 2019-04-18 06:55:03 21.8 22 25.8
002EF1D2 2019-04-18 06:22:06 21.8 22 25.7
002EF1D2 2019-04-18 05:49:10 21.8 22 26
002EF1D2 2019-04-18 05:16:14 21.8 22 25.6
002EF1D2 2019-04-18 04:43:18 21.8 22 25.7
002EF1D2 2019-04-18 04:10:22 21.9 22 25.7
002EF1D2 2019-04-18 03:37:28 22 22 25.6
002EF1D2 2019-04-18 03:04:34 22 22 25.4
002EF1D2 2019-04-18 02:31:39 22 23 25.4
002EF1D2 2019-04-18 01:58:44 22 23 25.3
002EF1D2 2019-04-18 01:25:49 22 23 25.2
002EF1D2 2019-04-18 00:52:53 22 23 25.1
002EF1D2 2019-04-18 00:19:57 22 23 25
002EF1D2 2019-04-17 23:47:01 22.1 23 25.5
002EF1D2 2019-04-17 23:14:05 22.1 23 25.6
002EF1D2 2019-04-17 22:41:09 22.2 23 25.4
002EF1D2 2019-04-17 22:08:15 22.2 23 25.4
002EF1D2 2019-04-17 21:35:20 22.2 23 25.3
002EF1D2 2019-04-17 21:02:26 22.3 23 25.2
002EF1D2 2019-04-17 20:29:31 22.5 23 25
002EF1D2 2019-04-17 19:56:36 22.5 23 24.9
002EF1D2 2019-04-17 19:23:41 22.5 22 25
002EF1D2 2019-04-17 18:50:45 22.5 22 24.8
002EF1D2 2019-04-17 18:17:51 22.5 22 24.7
002EF1D2 2019-04-17 17:44:55 22.5 22 24.6
002EF1D2 2019-04-17 17:12:01 22.7 22 24.6
002EF1D2 2019-04-17 16:39:05 22.7 22 24.7
002EF1D2 2019-04-17 16:06:10 22.7 22 24.3
002EF1D2 2019-04-17 15:33:15 22.7 23 24.3
002EF1D2 2019-04-17 15:00:18 22.7 23 24.2
002EF1D2 2019-04-17 14:27:22 22.5 23 24.3
002EF1D2 2019-04-17 13:54:26 22.5 23 24.4
002EF1D2 2019-04-17 13:21:31 22.5 23 24.5
002EF1D2 2019-04-17 12:48:36 22.2 23 24.6
002EF1D2 2019-04-17 12:15:40 22.2 23 24.4
002EF1D2 2019-04-17 11:42:42 22 22 24.5
002EF1D2 2019-04-17 11:09:46 22 22 24.5
002EF1D2 2019-04-17 10:36:50 21.9 22 24.7
002EF1D2 2019-04-17 10:03:54 21.9 21 24.4
002EF1D2 2019-04-17 09:30:59 21.8 22 24.4
002EF1D2 2019-04-17 08:58:03 21.8 21 24.4
002EF1D2 2019-04-17 08:25:07 21.8 21 24.6
002EF1D2 2019-04-17 07:52:12 21.8 20 24.7
002EF1D2 2019-04-17 07:19:15 21.8 20 24.8
002EF1D2 2019-04-17 06:46:19 21.8 20 24.9
002EF1D2 2019-04-17 06:13:22 21.8 20 24.9
002EF1D2 2019-04-17 05:40:26 21.8 20 25
002EF1D2 2019-04-17 05:07:29 21.7 20 25
002EF1D2 2019-04-17 04:34:33 21.8 20 25
002EF1D2 2019-04-17 04:01:36 21.8 20 25
002EF1D2 2019-04-17 03:28:40 21.8 20 24.9
002EF1D2 2019-04-17 02:55:44 21.8 20 24.9
002EF1D2 2019-04-17 02:22:48 21.8 20 24.8
002EF1D2 2019-04-17 01:49:53 21.8 20 24.8
002EF1D2 2019-04-17 01:16:58 21.8 20 24.7
002EF1D2 2019-04-17 00:44:03 21.8 20 24.7
002EF1D2 2019-04-17 00:11:06 21.8 20 24.7
002EF1D2 2019-04-16 23:38:07 21.8 20 24.6
002EF1D2 2019-04-16 23:05:10 21.9 20 24.6
002EF1D2 2019-04-16 22:32:12 22 20 24.9
002EF1D2 2019-04-16 21:59:15 22 20 25.3
002EF1D2 2019-04-16 21:26:19 22.1 20 25.3
002EF1D2 2019-04-16 20:53:22 22 20 25.1
002EF1D2 2019-04-16 20:20:25 22.2 20 25
002EF1D2 2019-04-16 19:47:29 22.1 20 24.9
002EF1D2 2019-04-16 19:14:32 22 20 24.8
002EF1D2 2019-04-16 18:41:35 22 19 24.7
002EF1D2 2019-04-16 18:08:39 22.1 19 24.7
002EF1D2 2019-04-16 17:35:44 22.2 19 24.6
002EF1D2 2019-04-16 17:02:48 22.3 19 24.6
002EF1D2 2019-04-16 16:29:51 22.5 19 24.6
002EF1D2 2019-04-16 15:56:56 22.5 19 24.7
002EF1D2 2019-04-16 15:24:01 22.5 19 24.7
002EF1D2 2019-04-16 14:51:05 22.5 20 24.8
002EF1D2 2019-04-16 14:18:09 22.3 19 24.8
002EF1D2 2019-04-16 13:45:12 22.2 19 25
002EF1D2 2019-04-16 13:12:16 22.2 19 25
002EF1D2 2019-04-16 12:39:21 22 19 25.1
002EF1D2 2019-04-16 12:06:25 22 18 25.1
002EF1D2 2019-04-16 11:33:29 22 18 25.3
002EF1D2 2019-04-16 11:00:34 22 18 25.2
002EF1D2 2019-04-16 10:27:41 21.8 19 25.1
002EF1D2 2019-04-16 09:54:46 21.8 18 25.1
002EF1D2 2019-04-16 09:21:52 21.8 18 25.4
002EF1D2 2019-04-16 08:48:57 21.8 18 25.4
002EF1D2 2019-04-16 08:16:01 21.7 18 25
002EF1D2 2019-04-16 07:43:04 21.8 18 25
002EF1D2 2019-04-16 07:10:08 21.7 18 25
002EF1D2 2019-04-16 06:37:13 21.7 18 25
002EF1D2 2019-04-16 06:04:17 21.7 18 24.9
002EF1D2 2019-04-16 05:31:21 21.6 18 24.9
002EF1D2 2019-04-16 04:58:25 21.6 18 24.9
002EF1D2 2019-04-16 04:25:29 21.8 18 24.9
002EF1D2 2019-04-16 03:52:32 21.8 17 24.8
002EF1D2 2019-04-16 03:19:37 21.8 17 24.8
002EF1D2 2019-04-16 02:46:42 21.8 17 24.7
002EF1D2 2019-04-16 02:13:45 21.8 17 24.5
002EF1D2 2019-04-16 01:40:48 21.8 17 24.4
002EF1D2 2019-04-16 01:07:52 21.8 17 24.4
002EF1D2 2019-04-16 00:34:56 21.8 17 24.4
002EF1D2 2019-04-16 00:02:01 21.8 17 24.2
002EF1D2 2019-04-15 23:29:04 21.8 17 24.2
002EF1D2 2019-04-15 22:56:08 21.8 17 24.2
002EF1D2 2019-04-15 22:23:11 21.8 17 24.1
002EF1D2 2019-04-15 21:50:15 22 17 24.1
002EF1D2 2019-04-15 21:17:20 22 17 24.1
002EF1D2 2019-04-15 20:44:23 22 17 24.2
002EF1D2 2019-04-15 20:11:27 22.1 17 24.2
002EF1D2 2019-04-15 19:38:32 22.1 16 23.7
002EF1D2 2019-04-15 19:05:37 22 16 23.6
002EF1D2 2019-04-15 18:32:41 22 15 23.6
002EF1D2 2019-04-15 17:59:46 22.2 15 23.5
002EF1D2 2019-04-15 17:26:50 22.2 15 23.5
002EF1D2 2019-04-15 16:53:55 22.4 15 23.6
002EF1D2 2019-04-15 16:20:59 22.5 15 23.6
002EF1D2 2019-04-15 15:48:04 22.5 16 23.8
002EF1D2 2019-04-15 15:15:07 22.5 16 23.7
002EF1D2 2019-04-15 14:42:12 22.4 16 23.8
002EF1D2 2019-04-15 14:09:16 22.2 16 23.9
002EF1D2 2019-04-15 13:36:20 22.2 16 23.9
002EF1D2 2019-04-15 13:03:25 22.1 17 24
002EF1D2 2019-04-15 12:30:28 22 16 24
002EF1D2 2019-04-15 11:57:33 21.9 16 24
002EF1D2 2019-04-15 11:24:36 21.8 16 24
002EF1D2 2019-04-15 10:51:41 21.8 17 24
002EF1D2 2019-04-15 10:18:45 21.8 17 24.3
002EF1D2 2019-04-15 09:45:48 21.8 17 24.3
002EF1D2 2019-04-15 09:12:51 21.6 17 24.4
002EF1D2 2019-04-15 08:39:56 21.6 17 24.5
002EF1D2 2019-04-15 08:07:01 21.6 17 24.4
002EF1D2 2019-04-15 07:34:05 21.6 17 24.3
002EF1D2 2019-04-15 07:01:09 21.6 18 24.3
002EF1D2 2019-04-15 06:28:14 21.5 18 24.3
002EF1D2 2019-04-15 05:55:19 21.5 18 24.2
002EF1D2 2019-04-15 05:22:24 21.5 18 24.2
002EF1D2 2019-04-15 04:49:28 21.4 18 24.3
002EF1D2 2019-04-15 04:16:32 21.4 18 24.4
002EF1D2 2019-04-15 03:43:36 21.5 18 24.6
002EF1D2 2019-04-15 03:10:41 21.5 18 24.6
002EF1D2 2019-04-15 02:37:45 21.4 18 24.6
002EF1D2 2019-04-15 02:04:48 21.5 18 24.4
002EF1D2 2019-04-15 01:31:52 21.5 18 24.5
002EF1D2 2019-04-15 00:58:56 21.4 18 24.5
002EF1D2 2019-04-15 00:25:59 21.4 18 24.4
002EF1D2 2019-04-14 23:53:03 21.4 18 24.4
002EF1D2 2019-04-14 23:20:07 21.5 18 24.5
002EF1D2 2019-04-14 22:47:11 21.6 18 24.6
002EF1D2 2019-04-14 22:14:14 21.6 18 24.5
002EF1D2 2019-04-14 21:41:18 21.6 19 24.6
002EF1D2 2019-04-14 21:08:21 21.6 19 24.4
002EF1D2 2019-04-14 20:35:24 21.6 19 24.3
002EF1D2 2019-04-14 20:02:28 21.6 19 24.2
002EF1D2 2019-04-14 19:29:32 21.6 19 24.1
002EF1D2 2019-04-14 18:56:36 21.6 19 24
002EF1D2 2019-04-14 18:23:41 21.6 19 24
002EF1D2 2019-04-14 17:50:47 21.6 19 24.2
002EF1D2 2019-04-14 17:17:49 21.6 19 24.1
002EF1D2 2019-04-14 16:44:53 21.6 19 24.3
002EF1D2 2019-04-14 16:11:58 21.6 19 24.3
002EF1D2 2019-04-14 15:39:03 21.6 19 24.4
002EF1D2 2019-04-14 15:06:07 21.6 19 24.3
002EF1D2 2019-04-14 14:33:13 21.6 19 24.2
002EF1D2 2019-04-14 14:00:16 21.6 19 23.9
002EF1D2 2019-04-14 13:27:21 21.6 19 23.9
002EF1D2 2019-04-14 12:54:28 21.6 19 24
002EF1D2 2019-04-14 12:21:32 21.6 19 24
002EF1D2 2019-04-14 11:48:36 21.6 19 24.1
002EF1D2 2019-04-14 11:15:40 21.6 19 24
002EF1D2 2019-04-14 10:42:44 21.6 19 24
002EF1D2 2019-04-14 10:09:49 21.6 19 24
002EF1D2 2019-04-14 09:36:53 21.6 19 23.8
002EF1D2 2019-04-14 09:03:57 21.6 19 24
002EF1D2 2019-04-14 08:31:02 21.6 19 24.1
002EF1D2 2019-04-14 07:58:06 21.6 19 24.1
002EF1D2 2019-04-14 07:25:10 21.6 19 24.2
002EF1D2 2019-04-14 06:52:15 21.6 19 24.2
002EF1D2 2019-04-14 06:19:18 21.6 18 24.1
002EF1D2 2019-04-14 05:46:22 21.6 18 24.3
002EF1D2 2019-04-14 05:13:26 21.6 19 24.4
002EF1D2 2019-04-14 04:40:30 21.6 18 24.6
002EF1D2 2019-04-14 04:07:33 21.6 18 24.5
002EF1D2 2019-04-14 03:34:36 21.6 19 24.6
002EF1D2 2019-04-14 03:01:39 21.6 19 24.5
002EF1D2 2019-04-14 02:28:41 21.6 19 24.5
002EF1D2 2019-04-14 01:55:44 21.6 19 24.6
002EF1D2 2019-04-14 01:22:47 21.6 19 24.6
002EF1D2 2019-04-14 00:49:50 21.6 19 24.6
002EF1D2 2019-04-14 00:16:54 21.7 19 24.6
002EF1D2 2019-04-13 23:43:58 21.7 19 24.7
002EF1D2 2019-04-13 23:11:02 21.7 18 24.6
002EF1D2 2019-04-13 22:38:07 21.8 18 24.7
002EF1D2 2019-04-13 22:05:11 21.8 18 24.6
002EF1D2 2019-04-13 21:32:16 21.8 18 24.8
002EF1D2 2019-04-13 20:59:19 21.8 18 24.8
002EF1D2 2019-04-13 20:26:22 21.8 18 25
002EF1D2 2019-04-13 19:53:25 21.8 18 24.9
002EF1D2 2019-04-13 19:20:28 21.8 18 24.7
002EF1D2 2019-04-13 18:47:30 21.8 19 24.8
002EF1D2 2019-04-13 18:14:34 21.9 19 24.8
002EF1D2 2019-04-13 17:41:38 21.9 19 24.8
002EF1D2 2019-04-13 17:08:40 21.9 19 24.8
002EF1D2 2019-04-13 16:35:44 21.9 19 24.9
002EF1D2 2019-04-13 16:02:46 22 19 24.7
002EF1D2 2019-04-13 15:29:50 22 19 24.6
002EF1D2 2019-04-13 14:56:53 22 19 24.6
002EF1D2 2019-04-13 14:23:56 22 19 24.5
002EF1D2 2019-04-13 13:50:59 22 19 24.6
002EF1D2 2019-04-13 13:18:02 22 19 24.5
002EF1D2 2019-04-13 12:45:05 22 19 24.4
002EF1D2 2019-04-13 12:12:07 22 19 24.4
002EF1D2 2019-04-13 11:39:10 22 19 24.5
002EF1D2 2019-04-13 11:06:12 22 19 24.6
002EF1D2 2019-04-13 10:33:14 22 19 24.6
002EF1D2 2019-04-13 10:00:16 22 19 24.6
002EF1D2 2019-04-13 09:27:18 22 19 24.7
002EF1D2 2019-04-13 08:54:19 22 19 24.8
002EF1D2 2019-04-13 08:21:20 22 19 24.9
002EF1D2 2019-04-13 07:48:22 22 19 24.8
002EF1D2 2019-04-13 07:15:22 22 19 24.8
002EF1D2 2019-04-13 06:42:25 22 19 24.6
002EF1D2 2019-04-13 06:09:29 22 19 24.6
002EF1D2 2019-04-13 05:36:32 22 19 24.6
002EF1D2 2019-04-13 05:03:36 22 19 24.5
002EF1D2 2019-04-13 04:30:38 22 19 24.4
002EF1D2 2019-04-13 03:57:41 22 19 24.8
002EF1D2 2019-04-13 03:24:43 22.1 19 25.3
002EF1D2 2019-04-13 02:51:45 22.1 19 25.3
002EF1D2 2019-04-13 02:18:47 22.1 19 25.2
002EF1D2 2019-04-13 01:45:50 22.2 19 25.3
002EF1D2 2019-04-13 01:12:52 22.2 19 25.2
002EF1D2 2019-04-13 00:39:53 22.2 19 25.2
002EF1D2 2019-04-13 00:06:55 22.2 20 25.2
002EF1D2 2019-04-12 23:33:57 22.2 20 25.3
002EF1D2 2019-04-12 23:01:00 22.3 20 25.5
002EF1D2 2019-04-12 22:28:02 22.5 20 25.5
002EF1D2 2019-04-12 21:55:04 22.5 20 25.4
002EF1D2 2019-04-12 21:22:06 22.5 20 25.4
002EF1D2 2019-04-12 20:49:08 22.5 20 25.5
002EF1D2 2019-04-12 20:16:10 22.5 20 25.6
002EF1D2 2019-04-12 19:43:13 22.5 20 25.4
002EF1D2 2019-04-12 19:10:17 22.5 19 25.5
002EF1D2 2019-04-12 18:37:21 22.6 18 25.4
002EF1D2 2019-04-12 18:04:24 22.7 18 25.6
002EF1D2 2019-04-12 17:31:28 22.7 18 25.7
002EF1D2 2019-04-12 16:58:32 22.7 18 26
002EF1D2 2019-04-12 16:25:34 22.7 19 26.4
002EF1D2 2019-04-12 15:52:38 22.6 19 26.9
002EF1D2 2019-04-12 15:19:41 22.5 19 27.2
002EF1D2 2019-04-12 14:46:43 22.2 20 27.9
002EF1D2 2019-04-12 14:13:47 21.8 20 26.8
002EF1D2 2019-04-12 13:40:50 21.4 21 23.4
002EF1D2 2019-04-12 13:07:52 20.7 24 13